| time (UTC) | temp F | wind direction | speed MPH | gust MPH | rain 1hr in | rain 24hr in | rain mn in | humidity % | barometer mb |
| 20260508060036 | 45 | 6 | 1.0 | 5.0 | 0.00 | 0.01 | 0.00 | 61 | 1006.5 |
| 20260508054535 | 45 | 28 | 0.0 | 3.0 | 0.00 | 0.02 | 0.00 | 62 | 1006.7 |
| 20260508053036 | 44 | 1 | 0.0 | 4.0 | 0.00 | 0.02 | 0.00 | 63 | 1006.8 |
| 20260508051531 | 44 | 42 | 0.0 | 1.0 | 0.00 | 0.02 | 0.00 | 64 | 1007.0 |
| 20260508050030 | 44 | 307 | 0.0 | 4.0 | 0.00 | 0.02 | 0.00 | 65 | 1007.1 |
| 20260508044529 | 44 | 23 | 0.0 | 1.0 | 0.00 | 0.17 | 0.00 | 65 | 1007.1 |
| 20260508043048 | 44 | 340 | 0.0 | 0.0 | 0.00 | 0.17 | 0.00 | 67 | 1007.3 |
| 20260508041525 | 45 | 340 | 0.0 | 1.0 | 0.00 | 0.17 | 0.00 | 65 | 1007.4 |
| 20260508040024 | 46 | 322 | 0.0 | 1.0 | 0.00 | 0.17 | 0.00 | 62 | 1007.3 |
| 20260508034517 | 46 | 1 | 0.0 | 1.0 | 0.00 | 0.18 | 0.17 | 60 | 1007.4 |
| 20260508033016 | 47 | 353 | 0.0 | 4.0 | 0.00 | 0.18 | 0.17 | 61 | 1007.2 |
| 20260508031520 | 47 | 336 | 0.0 | 3.0 | 0.00 | 0.18 | 0.17 | 62 | 1007.5 |
| 20260508030013 | 48 | 354 | 1.0 | 3.0 | 0.00 | 0.18 | 0.17 | 58 | 1007.4 |
| 20260508024513 | 48 | 323 | 0.0 | 4.0 | 0.00 | 0.18 | 0.17 | 59 | 1007.1 |
| 20260508023017 | 49 | 345 | 0.0 | 2.0 | 0.00 | 0.18 | 0.17 | 59 | 1007.1 |
| 20260508021512 | 50 | 356 | 0.0 | 5.0 | 0.00 | 0.18 | 0.17 | 57 | 1007.0 |
| 20260508020012 | 51 | 333 | 0.0 | 5.0 | 0.00 | 0.18 | 0.17 | 54 | 1006.6 |
| 20260508014513 | 51 | 14 | 1.0 | 6.0 | 0.00 | 0.19 | 0.17 | 54 | 1006.6 |
| 20260508013011 | 51 | 342 | 0.0 | 3.0 | 0.00 | 0.19 | 0.17 | 55 | 1006.3 |
| 20260508011508 | 52 | 9 | 2.0 | 9.0 | 0.00 | 0.19 | 0.17 | 57 | 1006.3 |
| 20260508010012 | 51 | 18 | 0.0 | 1.0 | 0.00 | 0.19 | 0.17 | 57 | 1006.2 |
| 20260508004507 | 52 | 170 | 0.0 | 4.0 | 0.00 | 0.21 | 0.17 | 53 | 1005.9 |
| 20260508003006 | 52 | 359 | 0.0 | 2.0 | 0.00 | 0.21 | 0.17 | 54 | 1005.5 |
| 20260508001506 | 53 | 353 | 0.0 | 1.0 | 0.00 | 0.21 | 0.17 | 53 | 1005.4 |
| 20260508000008 | 55 | 351 | 0.0 | 3.0 | 0.00 | 0.21 | 0.17 | 48 | 1005.2 |
| 20260507234505 | 54 | 210 | 0.0 | 1.0 | 0.00 | 0.23 | 0.17 | 50 | 1005.1 |
| 20260507233104 | 56 | 28 | 0.0 | 4.0 | 0.00 | 0.23 | 0.17 | 46 | 1004.9 |
| 20260507231509 | 57 | 288 | 2.0 | 9.0 | 0.00 | 0.23 | 0.17 | 43 | 1004.7 |
| 20260507230002 | 58 | 232 | 0.0 | 3.0 | 0.00 | 0.35 | 0.17 | 42 | 1004.4 |
| 20260507224502 | 59 | 144 | 3.0 | 7.0 | 0.00 | 0.35 | 0.17 | 40 | 1004.4 |
| 20260507223001 | 59 | 295 | 1.0 | 6.0 | 0.00 | 0.35 | 0.17 | 39 | 1004.1 |
| 20260507221602 | 59 | 74 | 2.0 | 4.0 | 0.00 | 0.35 | 0.17 | 43 | 1004.0 |
| 20260507220059 | 60 | 105 | 0.0 | 5.0 | 0.00 | 0.35 | 0.17 | 40 | 1004.0 |
| 20260507214558 | 60 | 82 | 1.0 | 10.0 | 0.00 | 0.48 | 0.17 | 38 | 1004.1 |
| 20260507213106 | 61 | 226 | 2.0 | 8.0 | 0.00 | 0.48 | 0.17 | 39 | 1003.9 |
| 20260507211600 | 61 | 202 | 0.0 | 5.0 | 0.00 | 0.48 | 0.17 | 41 | 1003.8 |
| 20260507210054 | 60 | 216 | 3.0 | 13.0 | 0.00 | 0.48 | 0.17 | 41 | 1003.7 |
| 20260507204557 | 54 | 172 | 8.0 | 13.0 | 0.00 | 0.52 | 0.17 | 74 | 1003.7 |
| 20260507203051 | 55 | 190 | 8.0 | 15.0 | 0.00 | 0.52 | 0.17 | 76 | 1003.5 |
| 20260507201600 | 54 | 195 | 7.0 | 13.0 | 0.00 | 0.52 | 0.17 | 78 | 1003.6 |
| 20260507200054 | 53 | 188 | 9.0 | 15.0 | 0.00 | 0.52 | 0.17 | 79 | 1003.7 |
| 20260507194553 | 55 | 180 | 7.0 | 12.0 | 0.00 | 0.54 | 0.17 | 77 | 1003.8 |
| 20260507193047 | 55 | 198 | 8.0 | 15.0 | 0.00 | 0.54 | 0.17 | 76 | 1003.9 |
| 20260507191608 | 52 | 187 | 9.0 | 12.0 | 0.00 | 0.54 | 0.17 | 82 | 1004.1 |
| 20260507190045 | 52 | 193 | 9.0 | 15.0 | 0.00 | 0.54 | 0.17 | 81 | 1004.2 |
| 20260507184556 | 56 | 167 | 9.0 | 16.0 | 0.00 | 0.54 | 0.17 | 71 | 1004.2 |
| 20260507183047 | 56 | 195 | 8.0 | 15.0 | 0.00 | 0.54 | 0.17 | 68 | 1004.4 |
| 20260507181541 | 56 | 184 | 9.0 | 17.0 | 0.00 | 0.54 | 0.17 | 71 | 1004.5 |
| 20260507180042 | 56 | 184 | 10.0 | 15.0 | 0.00 | 0.54 | 0.17 | 72 | 1004.6 |
| 20260507174542 | 55 | 186 | 11.0 | 14.0 | 0.00 | 0.54 | 0.17 | 73 | 1004.7 |
| 20260507173039 | 56 | 186 | 10.0 | 16.0 | 0.00 | 0.54 | 0.17 | 76 | 1004.8 |
| 20260507171542 | 55 | 195 | 8.0 | 14.0 | 0.00 | 0.54 | 0.17 | 77 | 1004.8 |
| 20260507170038 | 53 | 169 | 11.0 | 15.0 | 0.00 | 0.54 | 0.17 | 83 | 1004.9 |
| 20260507164549 | 54 | 182 | 11.0 | 15.0 | 0.00 | 0.54 | 0.17 | 79 | 1004.8 |
| 20260507163037 | 56 | 193 | 7.0 | 17.0 | 0.00 | 0.54 | 0.17 | 75 | 1004.9 |
| 20260507161539 | 60 | 217 | 6.0 | 15.0 | 0.00 | 0.54 | 0.17 | 68 | 1005.2 |
| 20260507160035 | 59 | 200 | 3.0 | 7.0 | 0.00 | 0.54 | 0.17 | 70 | 1005.1 |
| 20260507154528 | 57 | 134 | 1.0 | 5.0 | 0.00 | 0.54 | 0.17 | 74 | 1005.6 |
| 20260507153027 | 53 | 193 | 2.0 | 6.0 | 0.00 | 0.54 | 0.17 | 83 | 1005.7 |
| 20260507151526 | 52 | 191 | 2.0 | 8.0 | 0.00 | 0.54 | 0.17 | 83 | 1005.9 |
| 20260507150025 | 51 | 190 | 3.0 | 6.0 | 0.00 | 0.54 | 0.17 | 86 | 1005.9 |
| 20260507144524 | 51 | 169 | 6.0 | 8.0 | 0.00 | 0.54 | 0.17 | 84 | 1006.2 |
| 20260507143038 | 52 | 204 | 3.0 | 8.0 | 0.00 | 0.54 | 0.17 | 83 | 1006.2 |
| 20260507141521 | 54 | 163 | 2.0 | 7.0 | 0.00 | 0.54 | 0.17 | 78 | 1006.4 |
| 20260507140020 | 55 | 149 | 1.0 | 5.0 | 0.00 | 0.54 | 0.17 | 75 | 1006.4 |
| 20260507134519 | 55 | 151 | 1.0 | 5.0 | 0.00 | 0.54 | 0.17 | 76 | 1006.4 |
| 20260507133019 | 54 | 2 | 1.0 | 6.0 | 0.00 | 0.54 | 0.17 | 76 | 1006.4 |
| 20260507131517 | 54 | 142 | 1.0 | 9.0 | 0.00 | 0.54 | 0.17 | 78 | 1006.4 |
| 20260507130030 | 54 | 50 | 0.0 | 3.0 | 0.00 | 0.54 | 0.17 | 80 | 1006.6 |
| 20260507124513 | 53 | 19 | 2.0 | 6.0 | 0.00 | 0.54 | 0.17 | 80 | 1006.9 |
| 20260507123011 | 52 | 293 | 2.0 | 5.0 | 0.00 | 0.54 | 0.17 | 84 | 1006.6 |
| 20260507121509 | 50 | 19 | 2.0 | 4.0 | 0.00 | 0.54 | 0.17 | 87 | 1006.7 |
| 20260507120008 | 49 | 34 | 0.0 | 4.0 | 0.00 | 0.54 | 0.17 | 88 | 1006.4 |
| 20260507114506 | 49 | 28 | 1.0 | 3.0 | 0.00 | 0.54 | 0.17 | 91 | 1006.5 |
| 20260507113006 | 47 | 360 | 0.0 | 2.0 | 0.00 | 0.54 | 0.17 | 92 | 1006.6 |
| 20260507111504 | 47 | 12 | 0.0 | 1.0 | 0.00 | 0.54 | 0.17 | 92 | 1006.8 |
| 20260507110004 | 46 | 355 | 0.0 | 3.0 | 0.00 | 0.54 | 0.17 | 93 | 1006.7 |
| 20260507104502 | 46 | 210 | 0.0 | 1.0 | 0.00 | 0.54 | 0.17 | 93 | 1007.1 |
| 20260507103058 | 0 | 0.0 | 0.0 | 0.00 | 0.54 | 0.17 | 1007.2 | ||
| 20260507101554 | 0 | 0.0 | 0.0 | 0.00 | 0.54 | 0.17 | 1006.5 | ||
| 20260507100057 | 0 | 0.0 | 0.0 | 0.00 | 0.54 | 0.17 | 1006.5 | ||
| 20260507094547 | 0 | 0.0 | 0.0 | 0.00 | 0.54 | 0.17 | 1006.3 | ||
| 20260507093040 | 0 | 0.0 | 0.0 | 0.00 | 0.54 | 0.17 | 1005.9 | ||
| 20260507091540 | 0 | 0.0 | 0.0 | 0.00 | 0.54 | 0.17 | 1006.3 | ||
| 20260507090031 | 0 | 0.0 | 0.0 | 0.00 | 0.54 | 0.17 | 1006.2 | ||
| 20260507084527 | 0 | 0.0 | 0.0 | 0.00 | 0.54 | 0.17 | 1006.3 | ||
| 20260507083023 | 0 | 333 | 1.0 | 5.0 | 0.00 | 0.54 | 0.17 | 93 | 1006.0 |
| 20260507081521 | 48 | 345 | 0.0 | 4.0 | 0.00 | 0.54 | 0.17 | 94 | 1006.0 |
| 20260507080018 | 49 | 181 | 0.0 | 3.0 | 0.00 | 0.54 | 0.17 | 94 | 1006.0 |
| 20260507074517 | 49 | 325 | 0.0 | 4.0 | 0.00 | 0.54 | 0.17 | 94 | 1005.9 |
| 20260507073015 | 49 | 30 | 0.0 | 4.0 | 0.00 | 0.54 | 0.17 | 94 | 1005.6 |
| 20260507071522 | 50 | 321 | 0.0 | 3.0 | 0.00 | 0.54 | 0.17 | 94 | 1005.2 |
| 20260507070012 | 50 | 163 | 0.0 | 1.0 | 0.00 | 0.54 | 0.17 | 94 | 1005.0 |
| 20260507064508 | 50 | 9 | 0.0 | 2.0 | 0.01 | 0.54 | 0.17 | 94 | 1004.7 |
| 20260507063008 | 50 | 116 | 0.0 | 4.0 | 0.01 | 0.54 | 0.17 | 94 | 1004.9 |
| 20260507061506 | 50 | 328 | 1.0 | 8.0 | 0.01 | 0.54 | 0.17 | 94 | 1004.8 |